Regional Weather Roundup
Issued by NWS

Home | Current Version | Previous Version | Graphics & Text | Print | Product List | Glossary Off
Versions: 1 2 3 4 5 6 7 8 9 10 11 12 13 14 15 16 17 18 19 20 21 22 23 24 25 26 27 28 29 30 31 32 33 34 35 36 37 38 39 40 41 42 43 44 45 46 47 48 49 50

000
ASUS43 KTOP 090008
RWRKS

WEATHER ROUNDUP FOR KANSAS
NATIONAL WEATHER SERVICE GOODLAND KS
600 PM CST THU DEC 08 2016

NOTE:  "FAIR" INDICATES FEW OR NO CLOUDS BELOW 12,000 FEET WITH NO
SIGNIFICANT WEATHER AND/OR OBSTRUCTIONS TO VISIBILITY.

KSZ001>006-013>018-027>032-041>047-090100-
NORTHWEST KANSAS

CITY           SKY/WX    TMP DP  RH WIND       PRES   REMARKS
GOODLAND       CLOUDY     7   0  73 SE9       30.48F
6HR MIN TEMP:   7; 6HR MAX TEMP:  19;

HAYS           CLEAR     18   6  59 N6        30.62S
HILL CITY      CLEAR     11   0  61 N5        30.61S
6HR MIN TEMP:  11; 6HR MAX TEMP:  24;

RUSSELL        CLEAR     17   6  62 N7        30.62S
6HR MIN TEMP:  17; 6HR MAX TEMP:  25;

$$

KSZ061>065-074>080-084>089-090100-
SOUTHWEST KANSAS

CITY           SKY/WX    TMP DP  RH WIND       PRES   REMARKS
DODGE CITY     PTCLDY    14   4  64 NW5       30.59R
6HR MIN TEMP:  14; 6HR MAX TEMP:  24;

ELKHART          N/A     21  -3  35 SE8         N/A
GARDEN CITY    CLOUDY    20   5  52 E6        30.56R
6HR MIN TEMP:  15; 6HR MAX TEMP:  23;

GREAT BEND     CLEAR     19   7  59 N5        30.63R
LIBERAL        CLOUDY    25   1  36 E5        30.55R
PRATT          CLEAR     16   2  54 N6        30.62R
6HR MIN TEMP:  16; 6HR MAX TEMP:  26;

$$

KSZ066>073-081>083-090>101-090100-
SOUTHEAST KANSAS

CITY           SKY/WX    TMP DP  RH WIND       PRES   REMARKS
CHANUTE        CLEAR     23  13  65 NW6       30.65R
6HR MIN TEMP:  23; 6HR MAX TEMP:  29;

COFFEYVILLE    CLEAR     24  12  60 N7        30.67R
6HR MIN TEMP:  24; 6HR MAX TEMP:  32;

HUTCHINSON     CLEAR     22   7  52 N3        30.64S
6HR MIN TEMP:  21; 6HR MAX TEMP:  34;

MEDICINE LODGE   N/A     21   4  47 N5        30.64R
NEWTON         CLEAR     18  10  71 N5        30.64S
PARSONS        CLEAR     22  12  65 N6        30.67R
6HR MIN TEMP:  20; 6HR MAX TEMP:  31;

WICHITA INTL   PTCLDY    24   8  50 N8        30.64F
6HR MIN TEMP:  24; 6HR MAX TEMP:  30;

WICHITA JABRA  CLEAR     18   8  65 N6        30.64S
6HR MIN TEMP:  18; 6HR MAX TEMP:  29;

WICHITA MCCONL CLEAR     22   7  53 N8        30.63F
WINFIELD       CLEAR     20   8  60 N6        30.65F
6HR MIN TEMP:  20; 6HR MAX TEMP:  32;

$$

KSZ007>012-019>026-033>040-048>060-102>105-090100-
NORTHEAST KANSAS

CITY           SKY/WX    TMP DP  RH WIND       PRES   REMARKS
CONCORDIA      CLEAR     20   8  60 N5        30.63S
6HR MIN TEMP:  20; 6HR MAX TEMP:  26;

EMPORIA        CLEAR     20  10  65 NW7       30.64S
6HR MIN TEMP:  20; 6HR MAX TEMP:  27;

LAWRENCE       CLEAR     16   9  74 W6        30.65R
6HR MIN TEMP:  16; 6HR MAX TEMP:  27;

MANHATTAN      CLEAR     21  10  62 CALM      30.65S
6HR MIN TEMP:  21; 6HR MAX TEMP:  29;

MARYSVILLE     CLEAR     19  10  68 NW7       30.63S
OLATHE IND     CLEAR     20  10  65 NW5       30.63R
6HR MIN TEMP:  19; 6HR MAX TEMP:  26;

OLATHE EXE     CLEAR     21  10  62 NW7       30.62R
6HR MIN TEMP:  21; 6HR MAX TEMP:  25;

SALINA         CLEAR     20   9  62 W7        30.66F
6HR MIN TEMP:  20; 6HR MAX TEMP:  27;

TOPEKA BILLARD CLEAR     23  10  57 W5        30.65S
6HR MIN TEMP:  23; 6HR MAX TEMP:  28;

TOPEKA FORBES  CLEAR     19  10  68 NW8       30.63S
6HR MIN TEMP:  19; 6HR MAX TEMP:  28;

$$




USA.gov is the U.S. government's official web portal to all federal, state and local government web resources and services.